Regional Weather Roundup
Issued by NWS

Home | Current Version | Previous Version | Text Only | Print | Product List | Glossary Off
Versions: 1 2 3 4 5 6 7 8 9 10 11 12 13 14 15 16 17 18 19 20 21 22 23 24 25 26 27 28 29 30 31 32 33 34 35 36 37 38 39 40 41 42 43 44 45 46 47 48 49 50

000
ASUS45 KSLC 270010
RWRUT

UTAH REGIONAL WEATHER ROUNDUP
NATIONAL WEATHER SERVICE SALT LAKE CITY UT
600 PM MDT THU MAR 26 2015

UTZ001>011-023>025-270100-

NORTHERN UTAH

CITY           SKY/WX    TMP DP  RH WIND       PRES   REMARKS
BRIGHAM CITY   SUNNY     58  25  27 CALM      30.34S
HILL AFB       NOT AVBL
LOGAN          SUNNY     58  29  33 VRB3      30.32F
OGDEN          SUNNY     57  26  30 W3        30.33F
PROVO AIRPORT  MOSUNNY   57  28  33 VRB5      30.33F
SALT LAKE CITY PTSUNNY   60  26  27 N5        30.33F
VERNAL         SUNNY     61  18  18 CALM      30.22S
WENDOVER       SUNNY     61  27  27 SE5       30.32S
HEBER CITY     SUNNY     57  27  30 SW10      30.30S
WEST JORDAN    SUNNY     57  30  35 NW9       30.34F

$$

UTZ012>022-026-027-270100-

SOUTHERN/CENTRAL UTAH

CITY           SKY/WX    TMP DP  RH WIND       PRES   REMARKS
BLANDING       SUNNY     62  18  18 S10       30.32S
BRYCE CANYON   SUNNY     59  24  26 W8        30.35S
CEDAR CITY     SUNNY     63  23  21 N10       30.29S
DELTA          SUNNY     62  21  21 N3        30.31F
HANKSVILLE     SUNNY     66  19  16 S3        30.23F
MILFORD        SUNNY     63  25  23 NE13      30.30F
MOAB/CYNLANDS  SUNNY     64  12  13 W7        30.21F
PRICE          SUNNY     67  22  18 NW13G21   30.24S
ST GEORGE      CLEAR     75  27  16 E3        30.18F

$$

REGIONAL REPORTS     COLORADO/ARIZONA

CITY           SKY/WX    TMP DP  RH WIND       PRES   REMARKS
CRAIG, CO      MOSUNNY   56  25  30 SW13      30.23F
GRAND JUNCTION SUNNY     62  19  19 NW8       30.22F
RIFLE          SUNNY     61  21  21 W16       30.21S
MONTROSE       SUNNY     60  18  19 NW10      30.27S
CORTEZ         SUNNY     63  14  15 W14G25    30.23R
PAGE, AZ       SUNNY     68  17  14 E3        30.24F
GRAND CANYON   SUNNY     64  14  14 VRB5      30.31F
KINGMAN        SUNNY     77  18  11 NW12      30.15F
FLAGSTAFF      SUNNY     63  11  13 VRB6      30.31F

$$

REGIONAL REPORTS    NEVADA/IDAHO/WYOMING

CITY           SKY/WX    TMP DP  RH WIND       PRES   REMARKS
LAS VEGAS, NV  MOSUNNY   79  21  11 S5        30.10F
ELY            SUNNY     66  21  18 NE8       30.30F
ELKO           SUNNY     66  29  24 SW6       30.29F
POCATELLO, ID  SUNNY     60  33  36 SW13      30.31F
BURLEY         SUNNY     61  34  36 W9G17     30.28F
EVANSTON, WY   MOSUNNY   53  27  36 NW14      30.35R
ROCK SPRINGS   MOSUNNY   54  26  34 W31G37    30.24S
KEMMERER       MOSUNNY   48  30  49 W14G23    30.35R

$$


USA.gov is the U.S. government's official web portal to all federal, state and local government web resources and services.